Weather History for PASX - September, 2011

Change the Weather History Date:

Monday, September 26, 2011

  Actual Average Record
Temperature  
Mean Temperature 40 °F -  
Max Temperature 51 °F 50 °F 60 °F (1952)
Min Temperature 28 °F 36 °F 16 °F (1992)
Degree Days  
Heating Degree Days 26    
Moisture  
Dew Point 34 °F    
Average Humidity 82    
Maximum Humidity 100    
Minimum Humidity 58    
Precipitation  
Precipitation 0.00 in - - ()
Sea Level Pressure  
Sea Level Pressure 29.48 in    
Wind  
Wind Speed 4 mph (ENE)    
Max Wind Speed 14 mph    
Max Gust Speed -    
Visibility 10 miles    
Events      
Averages and records for this station are not official NWS values.
T = Trace of Precipitation, MM = Missing Value Source: NWS Daily Summary

Daily Weather History Graph

Daily Weather History Graph

Search for Another Location

Airport or City:

Trip Planner

Search our weather history database for the weather conditions in past years. The results will help you decide how hot, cold, wet, or windy it might be!

Date:

Astronomy

Sep. 26, 2011 Rise Set
Actual Time 7:57 AM AKDT 7:51 PM AKDT
Civil Twilight 7:15 AM AKDT 8:33 PM AKDT
Nautical Twilight 6:25 AM AKDT 9:23 PM AKDT
Astronomical Twilight 5:31 AM AKDT 10:17 PM AKDT
Moon 7:12 AM AKDT (9/26) 7:00 PM AKDT (9/26)
Length of Visible Light 13h 17m
Length of Day
11h 53m
Waning Crescent, 1% of the Moon is Illuminated
Sep 26
Waning Crescent
Sep 27
New
Oct 3
First Quarter
Oct 11
Full
Oct 19
Last Quarter

Hourly Weather History & Observations

Time (AKDT) Temp. Windchill Dew Point Humidity Pressure Visibility Wind Dir Wind Speed Gust Speed Precip Events Conditions
12:16 AM 35.6 °F 32.8 °F 32.0 °F 87% 29.48 in 10.0 mi ENE 3.5 mph - N/A   Scattered Clouds
12:36 AM 33.8 °F 30.8 °F 30.2 °F 87% 29.48 in 10.0 mi East 3.5 mph - N/A   Scattered Clouds
12:56 AM 33.8 °F 30.8 °F 30.2 °F 87% 29.48 in 10.0 mi ENE 3.5 mph - N/A   Clear
1:16 AM 33.8 °F 30.8 °F 30.2 °F 87% 29.48 in 10.0 mi East 3.5 mph - N/A   Partly Cloudy
1:36 AM 35.6 °F 31.7 °F 33.8 °F 93% 29.49 in 10.0 mi East 4.6 mph - N/A   Clear
1:56 AM 33.8 °F 29.6 °F 30.2 °F 87% 29.49 in 10.0 mi East 4.6 mph - N/A   Clear
2:16 AM 33.8 °F 29.6 °F 32.0 °F 93% 29.49 in 10.0 mi East 4.6 mph - N/A   Clear
2:36 AM 33.8 °F 30.8 °F 33.8 °F 100% 29.49 in 10.0 mi East 3.5 mph - N/A   Mostly Cloudy
2:56 AM 32.0 °F 27.5 °F 30.2 °F 93% 29.49 in 10.0 mi East 4.6 mph - N/A   Mostly Cloudy
3:16 AM 33.8 °F 29.6 °F 30.2 °F 87% 29.49 in 10.0 mi East 4.6 mph - N/A   Mostly Cloudy
3:36 AM 32.0 °F 26.4 °F 30.2 °F 93% 29.49 in 10.0 mi East 5.8 mph - N/A   Partly Cloudy
3:56 AM 32.0 °F 25.6 °F 28.4 °F 87% 29.49 in 10.0 mi East 6.9 mph - N/A   Clear
4:16 AM 32.0 °F 26.4 °F 30.2 °F 93% 29.49 in 10.0 mi East 5.8 mph - N/A   Scattered Clouds
4:36 AM 30.2 °F 23.4 °F 28.4 °F 93% 29.49 in 10.0 mi ESE 6.9 mph - N/A   Mostly Cloudy
4:56 AM 30.2 °F 26.7 °F 28.4 °F 93% 29.49 in 10.0 mi ESE 3.5 mph - N/A   Mostly Cloudy
5:16 AM 30.2 °F 26.7 °F 26.6 °F 86% 29.50 in 10.0 mi East 3.5 mph - N/A   Partly Cloudy
5:36 AM 30.2 °F 25.4 °F 26.6 °F 86% 29.50 in 10.0 mi East 4.6 mph - N/A   Clear
5:56 AM 30.2 °F 25.4 °F 28.4 °F 93% 29.50 in 10.0 mi ENE 4.6 mph - N/A   Clear
6:16 AM 30.2 °F - 28.4 °F 93% 29.51 in 10.0 mi Calm Calm - N/A   Mostly Cloudy
6:36 AM 28.4 °F 23.3 °F 26.6 °F 93% 29.50 in 10.0 mi ENE 4.6 mph - N/A   Overcast
6:56 AM 30.2 °F 25.4 °F 28.4 °F 93% 29.50 in 10.0 mi East 4.6 mph - N/A   Overcast
7:16 AM 30.2 °F 25.4 °F 28.4 °F 93% 29.50 in 10.0 mi East 4.6 mph - N/A   Overcast
7:36 AM 30.2 °F 25.4 °F 28.4 °F 93% 29.50 in 10.0 mi East 4.6 mph - N/A   Overcast
7:56 AM 30.2 °F 24.3 °F 28.4 °F 93% 29.50 in 10.0 mi East 5.8 mph - N/A   Scattered Clouds
8:16 AM 30.2 °F 26.7 °F 28.4 °F 93% 29.51 in 10.0 mi East 3.5 mph - N/A   Clear
8:36 AM 30.2 °F 26.7 °F 28.4 °F 93% 29.51 in 10.0 mi ENE 3.5 mph - N/A   Mostly Cloudy
8:56 AM 32.0 °F 27.5 °F 28.4 °F 87% 29.51 in 10.0 mi East 4.6 mph - N/A   Overcast
9:16 AM 32.0 °F 27.5 °F 28.4 °F 87% 29.50 in 10.0 mi East 4.6 mph - N/A   Mostly Cloudy
9:36 AM 33.8 °F 28.6 °F 30.2 °F 87% 29.50 in 10.0 mi East 5.8 mph - N/A   Partly Cloudy
9:56 AM 33.8 °F 29.6 °F 30.2 °F 87% 29.50 in 10.0 mi East 4.6 mph - N/A   Clear
10:16 AM 35.6 °F 31.7 °F 32.0 °F 87% 29.49 in 10.0 mi East 4.6 mph - N/A   Partly Cloudy
10:36 AM 35.6 °F - 32.0 °F 87% 29.49 in 10.0 mi Calm Calm - N/A   Clear
10:56 AM 37.4 °F - 32.0 °F 81% 29.49 in 10.0 mi Calm Calm - N/A   Clear
11:16 AM 37.4 °F - 33.8 °F 87% 29.49 in 10.0 mi Calm Calm - N/A   Scattered Clouds
11:36 AM 41.0 °F - 35.6 °F 81% 29.49 in 10.0 mi Calm Calm - N/A   Mostly Cloudy
11:56 AM 42.8 °F - 37.4 °F 81% 29.49 in 10.0 mi Calm Calm - N/A   Mostly Cloudy
12:16 PM 46.4 °F - 39.2 °F 76% 29.49 in 10.0 mi Calm Calm - N/A   Scattered Clouds
12:36 PM 46.4 °F - 37.4 °F 71% 29.49 in 10.0 mi Calm Calm - N/A   Partly Cloudy
12:56 PM 48.2 °F - 39.2 °F 71% 29.48 in 10.0 mi Calm Calm - N/A   Mostly Cloudy
1:16 PM 50.0 °F - 39.2 °F 66% 29.48 in 10.0 mi NW 4.6 mph - N/A   Mostly Cloudy
1:36 PM 50.0 °F - 41.0 °F 71% 29.47 in 10.0 mi WNW 10.4 mph - N/A   Mostly Cloudy
1:56 PM 48.2 °F - 39.2 °F 71% 29.47 in 10.0 mi West 13.8 mph - N/A   Overcast
2:16 PM 48.2 °F - 41.0 °F 76% 29.47 in 10.0 mi WNW 11.5 mph - N/A   Overcast
2:36 PM 48.2 °F - 39.2 °F 71% 29.46 in 10.0 mi West 10.4 mph - N/A   Mostly Cloudy
2:56 PM 48.2 °F - 39.2 °F 71% 29.45 in 10.0 mi WNW 6.9 mph - N/A   Scattered Clouds
3:16 PM 48.2 °F - 39.2 °F 71% 29.45 in 10.0 mi WSW 4.6 mph - N/A   Scattered Clouds
3:36 PM 50.0 °F - 39.2 °F 66% 29.44 in 10.0 mi WNW 4.6 mph - N/A   Partly Cloudy
3:56 PM 51.8 °F - 39.2 °F 62% 29.44 in 10.0 mi West 4.6 mph - N/A   Clear
4:16 PM 51.8 °F - 39.2 °F 62% 29.43 in 10.0 mi West 8.1 mph - N/A   Mostly Cloudy
4:36 PM 51.8 °F - 37.4 °F 58% 29.43 in 10.0 mi WNW 9.2 mph - N/A   Overcast
4:56 PM 51.8 °F - 39.2 °F 62% 29.43 in 10.0 mi NNE 3.5 mph - N/A   Overcast
5:16 PM 48.2 °F - 39.2 °F 71% 29.43 in 10.0 mi NNW 5.8 mph - N/A   Overcast
5:36 PM 50.0 °F - 35.6 °F 58% 29.42 in 10.0 mi NE 3.5 mph - N/A   Overcast
5:56 PM 48.2 °F - 39.2 °F 71% 29.42 in 7.0 mi NNE 6.9 mph - N/A   Overcast
6:16 PM 46.4 °F - 37.4 °F 71% 29.43 in 8.0 mi Calm Calm - N/A   Overcast
6:36 PM 46.4 °F 42.9 °F 39.2 °F 76% 29.42 in 9.0 mi South 6.9 mph - N/A   Overcast
6:56 PM 46.4 °F 43.5 °F 41.0 °F 81% 29.41 in 10.0 mi South 5.8 mph - N/A   Mostly Cloudy
7:16 PM 44.6 °F 43.1 °F 41.0 °F 87% 29.41 in 10.0 mi SSW 3.5 mph - N/A   Scattered Clouds
7:36 PM 44.6 °F - 41.0 °F 87% 29.41 in 10.0 mi Calm Calm - N/A   Partly Cloudy
7:56 PM 42.8 °F - 39.2 °F 87% 29.41 in 10.0 mi Calm Calm - N/A   Clear
8:16 PM 42.8 °F - 39.2 °F 87% 29.41 in 10.0 mi Calm Calm - N/A   Clear
8:36 PM 39.2 °F - 37.4 °F 93% 29.41 in 8.0 mi Calm Calm - N/A   Clear
8:56 PM 39.2 °F - 37.4 °F 93% 29.41 in 4.0 mi Calm Calm - N/A   Clear
9:16 PM 39.2 °F - 37.4 °F 93% 29.41 in 9.0 mi Calm Calm - N/A   Clear
9:36 PM 37.4 °F - 35.6 °F 93% 29.41 in 1.2 mi Calm Calm - N/A   Clear
9:56 PM 35.6 °F - 33.8 °F 93% 29.41 in 2.0 mi Calm Calm - N/A   Clear
10:16 PM 35.6 °F - 33.8 °F 93% 29.41 in 5.0 mi Calm Calm - N/A   Scattered Clouds
10:36 PM 35.6 °F - 35.6 °F 100% 29.41 in 1.0 mi Calm Calm - N/A   Mostly Cloudy
10:56 PM 33.8 °F - 33.8 °F 100% 29.41 in - Calm Calm - N/A   Unknown
11:16 PM 33.8 °F - 30.2 °F 87% 29.41 in - Calm Calm - N/A   Unknown
11:36 PM 33.8 °F - 32.0 °F 93% 29.41 in 1.8 mi Calm Calm - N/A   Mostly Cloudy
11:56 PM 32.0 °F - 30.2 °F 93% 29.41 in 1.5 mi Calm Calm - N/A   Scattered Clouds